STARLINK-33954, 63863

Orbit data source: Space-Track

STARLINK-33954, 63863 is a payload satellite owned by SpaceX/Seattle (US) in LEO that was launched on Wed, 07 May 2025 UTC via an FALCON 9 launch vehicle from the Air Force Eastern Test Range (AFETR). Payload-class satellites include a variety of spacecraft equipped with specific instruments for various scientific and technological missions. These include communications satellites like Starlink; space stations such as the ISS; scientific satellites like the Hubble; Earth observation satellites from companies like Planet Labs, Umbra, and HawkEye 360; GPS; miniature CubeSats for education and research; and military/defense satellites.

Loading next visibility...
Identifier
63863, 2025-093AD
Orbit
LEO
Country
Flag of USUS
Related business
Manufacturer
SpaceX/Seattle
Mission
Operational Commercial Communications
Bus & Motor
STARLINK V2MO, Unknown motor
Mass
575 kg wet, ~530 kg dry
Launch date (UTC)
2025-05-07 (7 months ago)
Launch vehicle
FALCON 9
Launch site
Air Force Eastern Test Range (AFETR)
Object type
Payload
Rocket body
Debris
Shape & HBR
Box + 2 Pan, 17.7 m
Radar Cross Section
36.964 m², Large (>1 m²)

Expand to show TLE details & history
Last TLE update: 1 day ago

TLE from 1 day ago
0 STARLINK-33954
1 63863U 25093AD  25348.32444144  .00021371  00000-0  78421-3 0  9992
2 63863  43.0018 200.2415 0000726 116.6323 243.4603 15.27565829 34699
Epoch: 2025-12-14T07:47Z
TLE epoch observation values (Epoch: 2025-12-14T07:47:11.740Z)
Latitude
-0.00002°
Longitude
0.20357°
Altitude
483.09 km
Speed
7.626 km/s
True Right ascension
13h 20m 57s
True Declination
0° 00' 00"
Sunlit
Object was in daylight at epoch
Visualization orbit readout
Latitude
Unknown
Longitude
Unknown
Altitude
Unknown
Speed
Unknown
Apparent Right ascension
Unknown
Apparent Declination
Unknown
Sunlit
N/A
Visualization observer readout
Local Sidereal Time
13:21:46
Azimuth
Unknown
Elevation
Unknown
Doppler factor
Unknown
Orbital elements
Apogee altitude
485.535 km
Perigee altitude
484.538 km
Semi-major axis
6,863.173 km
Eccentricity
0.00007
Inclination
43.0018°
RAAN
200.2415°
Arg. of periapsis
116.6323°
True anomaly
243.45286°
Mean anomaly
243.4603°
Eccentric anomaly
243.45658°
Mean motion
3.81729 °/min
Orbital period
94.31 mins
BSTAR
0.00078421
Loading maneuver chart data...
Computing Atmospheric mass density...
Loading historical data...
Loading historical data...
Loading historical data...
Loading historical data...
Loading historical data...
Loading historical data...
Loading historical data...

Documentation

Showing up to 5 results
|